Change the Weather History Date:

Monday, October 8, 2012

  Actual Average Record
Temperature  
Mean Temperature 45 °F -  
Max Temperature 51 °F 48 °F 53 °F (2003)
Min Temperature 39 °F 39 °F 32 °F (2006)
Degree Days  
Heating Degree Days 20    
Moisture  
Dew Point 41 °F    
Average Humidity 84    
Maximum Humidity 93    
Minimum Humidity 76    
Precipitation  
Precipitation 0.00 in - - ()
Sea Level Pressure  
Sea Level Pressure 30.15 in    
Wind  
Wind Speed 4 mph (NNE)    
Max Wind Speed 9 mph    
Max Gust Speed -    
Visibility 10 miles    
Events      
Averages and records for this station are not official NWS values.
T = Trace of Precipitation, MM = Missing Value Source: NWS Daily Summary

Daily Weather History Graph

Daily Weather History Graph

Search for Another Location

Airport or City:

Trip Planner

Search our weather history database for the weather conditions in past years. The results will help you decide how hot, cold, wet, or windy it might be!

Date:

Astronomy

Oct. 08, 2012 Rise Set
Actual Time 7:15 AM AKDT 6:09 PM AKDT
Civil Twilight 6:37 AM AKDT 6:47 PM AKDT
Nautical Twilight 5:52 AM AKDT 7:31 PM AKDT
Astronomical Twilight 5:07 AM AKDT 8:16 PM AKDT
Moon 11:52 PM AKDT (10/8) 3:14 PM AKDT (10/8)
Length of Visible Light 12h 10m
Length of Day
10h 54m
Last Quarter, 45% of the Moon is Illuminated
Oct 8
Last Quarter
Oct 15
New
Oct 21
First Quarter
Oct 29
Full
Nov 6
Last Quarter

Hourly Weather History & Observations

Time (AKDT) Temp. Windchill Dew Point Humidity Pressure Visibility Wind Dir Wind Speed Gust Speed Precip Events Conditions
1:36 AM 46.4 °F 45.2 °F 41.0 °F 81% 30.22 in 10.0 mi NNE 3.5 mph - N/A   Clear
1:56 AM 44.6 °F 43.1 °F 41.0 °F 87% 30.22 in 10.0 mi NE 3.5 mph - N/A   Clear
2:16 AM 41.0 °F 37.1 °F 37.4 °F 87% 30.21 in 10.0 mi ENE 5.8 mph - N/A   Clear
3:16 AM 44.6 °F 41.4 °F 41.0 °F 87% 30.20 in 10.0 mi North 5.8 mph - N/A   Clear
3:36 AM 44.6 °F 41.4 °F 41.0 °F 87% 30.20 in 10.0 mi NE 5.8 mph - N/A   Clear
4:16 AM 42.8 °F - 37.4 °F 81% 30.20 in 10.0 mi Calm Calm - N/A   Clear
4:36 AM 39.2 °F - 37.4 °F 93% 30.20 in 10.0 mi Calm Calm - N/A   Clear
4:56 AM 41.0 °F - 37.4 °F 87% 30.20 in 10.0 mi Calm Calm - N/A   Clear
5:16 AM 39.2 °F - 37.4 °F 93% 30.19 in 10.0 mi Calm Calm - N/A   Scattered Clouds
5:56 AM 44.6 °F 43.1 °F 41.0 °F 87% 30.18 in 10.0 mi NE 3.5 mph - N/A   Clear
7:16 AM 44.6 °F - 41.0 °F 87% 30.18 in 10.0 mi Calm Calm - N/A   Clear
7:36 AM 42.8 °F 41.1 °F 39.2 °F 87% 30.18 in 10.0 mi North 3.5 mph - N/A   Clear
7:56 AM 44.6 °F 43.1 °F 41.0 °F 87% 30.18 in 10.0 mi NNW 3.5 mph - N/A   Clear
8:16 AM 44.6 °F 42.2 °F 41.0 °F 87% 30.18 in 10.0 mi NW 4.6 mph - N/A   Scattered Clouds
10:56 AM 48.2 °F - 42.8 °F 82% 30.17 in 10.0 mi ENE 9.2 mph - N/A   Partly Cloudy
12:16 PM 50.0 °F - 42.8 °F 76% 30.16 in 10.0 mi NW 6.9 mph - N/A   Overcast
1:16 PM 51.8 °F - 44.6 °F 76% 30.15 in 10.0 mi NNE 5.8 mph - N/A   Scattered Clouds
1:36 PM 51.8 °F - 44.6 °F 76% 30.15 in 10.0 mi NNE 5.8 mph - N/A   Partly Cloudy
1:56 PM 51.8 °F - 44.6 °F 76% 30.15 in 10.0 mi North 4.6 mph - N/A   Clear
2:16 PM 51.8 °F - 44.6 °F 76% 30.15 in 10.0 mi NNW 5.8 mph - N/A   Clear
2:36 PM 51.8 °F - 44.6 °F 76% 30.15 in 10.0 mi West 5.8 mph - N/A   Clear
3:16 PM 51.8 °F - 44.6 °F 76% 30.14 in 10.0 mi North 4.6 mph - N/A   Clear
3:56 PM 51.8 °F - 44.6 °F 76% 30.13 in 10.0 mi North 5.8 mph - N/A   Clear
4:56 PM 51.8 °F - 44.6 °F 76% 30.11 in 10.0 mi North 4.6 mph - N/A   Clear
5:16 PM 51.8 °F - 44.6 °F 76% 30.11 in 10.0 mi Calm Calm - N/A   Clear
5:56 PM 48.2 °F - 42.8 °F 82% 30.11 in 10.0 mi Calm Calm - N/A   Clear
6:16 PM 46.4 °F - 42.8 °F 87% 30.11 in 10.0 mi Calm Calm - N/A   Clear
6:56 PM 44.6 °F 43.1 °F 39.2 °F 81% 30.11 in 10.0 mi NE 3.5 mph - N/A   Clear
7:16 PM 44.6 °F 43.1 °F 39.2 °F 81% 30.11 in 10.0 mi NE 3.5 mph - N/A   Clear
7:36 PM 44.6 °F - 39.2 °F 81% 30.10 in 10.0 mi Calm Calm - N/A   Clear
7:56 PM 42.8 °F 41.1 °F 39.2 °F 87% 30.11 in 10.0 mi ENE 3.5 mph - N/A   Clear
9:36 PM 41.0 °F 37.1 °F 37.4 °F 87% 30.11 in 10.0 mi ENE 5.8 mph - N/A   Clear
9:56 PM 41.0 °F 35.8 °F 37.4 °F 87% 30.11 in 10.0 mi ENE 8.1 mph - N/A   Clear
10:16 PM 41.0 °F 39.0 °F 37.4 °F 87% 30.11 in 10.0 mi ENE 3.5 mph - N/A   Clear
10:56 PM 39.2 °F 37.0 °F 37.4 °F 93% 30.11 in 10.0 mi East 3.5 mph - N/A   Clear
11:36 PM 39.2 °F 37.0 °F 37.4 °F 93% 30.11 in 10.0 mi East 3.5 mph - N/A   Clear
11:56 PM 39.2 °F 37.0 °F 37.4 °F 93% 30.10 in 10.0 mi East 3.5 mph - N/A   Clear